Regional Weather Roundup
Issued by NWS

Home | Current Version | Previous Version | Text Only | Print | Product List | Glossary On
Versions: 1 2 3 4 5 6 7 8 9 10 11 12 13 14 15 16 17 18 19 20 21 22 23 24 25 26 27 28 29 30 31 32 33 34 35 36 37 38 39 40 41 42 43 44 45 46 47 48 49 50
000
ASUS44 KBMX 272110
RWRAL

ALABAMA REGIONAL WEATHER ROUNDUP
NATIONAL WEATHER SERVICE BIRMINGHAM AL
400 PM CDT WED JUL 27 2016

NOTE: "FAIR" INDICATES FEW OR NO CLOUDS BELOW 12,000 FEET
WITH NO SIGNIFICANT WEATHER AND/OR OBSTRUCTIONS TO VISIBILITY.

THE REMARK "TC" DENOTES TEMPERATURE IN DEGREES CELSIUS.

ALZ001>011-014-016>018-020-272200-
NORTH ALABAMA

CITY           SKY/WX    TMP DP  RH WIND       PRES   REMARKS
MUSCLE SHOALS  PTSUNNY   90  71  53 S10       29.95F HX  96
HUNTSVILLE     MOSUNNY   93  68  43 S10       29.96F HX  97
DECATUR        SUNNY     90  71  53 S12       29.96F HX  96
HALEYVILLE     FAIR      87  73  62 S6        29.99F HX  94
GADSDEN        MOSUNNY   89  73  59 SW8         N/A  HX  97
$$

ALZ012-013-022-023-030>036-040>044-272200-
WEST CENTRAL ALABAMA

CITY           SKY/WX    TMP DP  RH WIND       PRES   REMARKS
TUSCALOOSA     CLOUDY    85  76  74 S8        29.95F HX  94
$$

ALZ015-024>027-033>036-040>044-272200-
CENTRAL ALABAMA

CITY           SKY/WX    TMP DP  RH WIND       PRES   REMARKS
BIRMINGHAM     PTSUNNY   89  74  60 VRB6      30.00F HX  98
MONTGOMERY     PTSUNNY   84  73  69 W6        30.02F HX  90
SHELBY CO ARPT PTSUNNY   84  71  65 S16G24    30.00F
MAXWELL AFB    PTSUNNY   83  73  69 W6        30.01F
GREENVILLE     FAIR      88  71  57 SW8       30.01F HX  94
$$

ALZ019-021-028-029-037-038-045>048-272200-
EAST CENTRAL ALABAMA

CITY           SKY/WX    TMP DP  RH WIND       PRES   REMARKS
ANNISTON       MOSUNNY   89  72  56 VRB6      30.00F HX  96
ALEXANDER CITY MOSUNNY   88  77  69 S6        30.03F HX  99
AUBURN         MOSUNNY   88  71  57 SW7       30.04F HX  94
$$

ALZ051>064-272200-
SOUTHWEST ALABAMA

CITY           SKY/WX    TMP DP  RH WIND       PRES   REMARKS
MOBILE         MOSUNNY   87  73  62 SW13      30.03F HX  94
BROOKLEY FIELD PTSUNNY   86  74  67 S10G17    30.03F HX  94
EVERGREEN      PTSUNNY   87  75  67 S15       30.02F HX  96
$$

ALZ049-050-065>069-272200-
SOUTHEAST ALABAMA

CITY           SKY/WX    TMP DP  RH WIND       PRES   REMARKS
DOTHAN         PTSUNNY   89  72  56 SW12      30.06F HX  96
OZARK          MOSUNNY   91  76  61 S6        30.02F HX 101
TROY           PTSUNNY   89  73  59 S7        30.02F HX  97
EUFAULA        FAIR      92  72  51 S7        30.01F HX  99
$$



USA.gov is the U.S. government's official web portal to all federal, state and local government web resources and services.